Regional Weather Roundup
Issued by NWS

Home | Current Version | Previous Version | Graphics & Text | Print | Product List | Glossary On
Versions: 1 2 3 4 5 6 7 8 9 10 11 12 13 14 15 16 17 18 19 20 21 22 23 24 25 26 27
000
ASUS45 KBOU 230707
RWRCO

WEATHER ROUNDUP FOR COLORADO
NATIONAL WEATHER SERVICE DENVER/BOULDER CO
1200 AM MST MON JAN 23 2017

NOTE: "FAIR" INDICATES FEW OR NO CLOUDS BELOW 12000 FEET WITH NO
SIGNIFICANT WEATHER AND/OR OBSTRUCTIONS TO VISIBILITY.

COZ001>005-013-030-031-230800-
...NORTHWEST COLORADO...

CITY           SKY/WX    TMP DP  RH WIND       PRES   REMARKS
CRAIG          CLOUDY    27  20  75 CALM      29.79F
HAYDEN         CLOUDY    23  18  80 SW7       29.78F WCI  15
MEEKER         CLOUDY    31  22  69 SW10      29.82F WCI  22
MOUNT WERNER   NOT AVBL
STEAMBOAT SPGS CLOUDY    23  19  87 SW3       29.78F
WALDEN           N/A     23  16  74 S8        29.77F WCI  14
$$

COZ006>008-011-230800-
...WEST CENTRAL VALLEYS...

CITY           SKY/WX    TMP DP  RH WIND       PRES   REMARKS
GRAND JUNCTION CLOUDY    34  29  82 SE21G26   29.86F WCI  22
MONTROSE       MOCLDY    29  28  96 SE8       29.92F WCI  21
EAGLE          CLOUDY    24  23  96 E6        29.84F WCI  17
RIFLE          CLOUDY    29  28  96 CALM      29.86F
DELTA          FLURRIES  32  30  92 E12       29.93F WCI  23
NUCLA          FLURRIES  30  28  93 E8        29.97F WCI  23
$$

COZ017>023-064>068-230800-
...SOUTHWEST COLORADO...

CITY           SKY/WX    TMP DP  RH WIND       PRES   REMARKS
DURANGO        LGT SNOW  25  21  85 CALM      30.08S FOG
CORTEZ         LGT SNOW  29  27  92 S6        30.04S VSB 1   WCI  23
PAGOSA SPRINGS LGT SNOW  24  23  97 CALM      30.08R
TELLURIDE      NOT AVBL
WOLF CREEK PAS CLOUDY     9   7  92 S23G37    29.97S WCI -12
$$

COZ009-010-012-014-032>034-037-058>063-230800-
...CENTRAL COLORADO...

CITY           SKY/WX    TMP DP  RH WIND       PRES   REMARKS
ASPEN          CLOUDY    24  21  88 SW8       29.80F WCI  15
BUENA VISTA    LGT SNOW  23  20  89 CALM      29.91S
COPPER MTN     SNOW      27  19  74 SW22G43   29.80F VSB 1/2 WCI  12
BERTHOUD PASS  CLOUDY    18   7  62 MISG      29.73F
COTTONWOOD PAS LGT SNOW  23  19  86 NW5       29.88F WCI  17
GUNNISON       LGT SNOW  19  18  93 CALM      29.97S VSB 3/4
KREMMLING      FLURRIES  27  21  80 SE3       29.82F
LEADVILLE      LGT SNOW  16  13  88 SE3       29.82F VSB 1
MONARCH PASS   CLOUDY    12   9  85 SW29G35   29.98F WCI  -9
SALIDA         CLOUDY    30  18  61 SW20G25   29.98R WCI  17
SUNLIGHT         N/A     18  14  86 SW25G32   29.80F WCI  -1
WILKERSON PASS LGT SNOW  14  12  92 SW17G24   29.85F VSB 3/4 WCI  -3
$$

COZ069>075-230800-
...SAN LUIS VALLEY/SANGRE DE CRISTO MOUNTAINS...

CITY           SKY/WX    TMP DP  RH WIND       PRES   REMARKS
ALAMOSA        FAIR      21  15  78 S3        29.95F
LA VETA PASS   LGT SNOW  19  16  86 NE24G33   29.91S VSB 3/4 WCI   2
SAGUACHE       CLOUDY    23  19  86 SE8       29.98S WCI  14
$$

COZ035-036-038>040-230800-
...NORTHERN COLORADO FRONT RANGE...

CITY           SKY/WX    TMP DP  RH WIND       PRES   REMARKS
DENVER INTL AP CLOUDY    34  17  50 W6        29.75F WCI  29
DMNS CITY PARK   N/A     34  13  42 E9        29.72F WCI  26
AURORA         MOCLDY    37  14  38 S12       29.74F
FRONT RANGE AP FAIR      37  19  48 SW6       29.76S
ERIE MUNI ARPT CLOUDY    31  22  67 CALM      29.74F
BOULDER MUN AP MOCLDY    34  14  44 CALM      29.74F
CENTENNIAL     FAIR      35  17  47 S7        29.75F WCI  29
BROOMFIELD     FAIR      32  16  51 CALM      29.75F
FORT COLLINS   FAIR      30  19  64 N7        29.76F WCI  23
LONGMONT       FAIR      34  19  52 CALM      29.76F
$$

COZ041-046-047-076>085-087-088-230800-
...PIKES PEAK/PALMER DIVIDE AND SOUTHERN FOOTHILLS...

CITY           SKY/WX    TMP DP  RH WIND       PRES   REMARKS
COLO. SPRINGS  MOCLDY    29  16  58 E6        29.83R WCI  23
A. F. ACADEMY  FAIR      28  13  54 SE3       29.80F
SCHRIEVER AFB  NOT AVBL
ELLICOTT       FAIR     N/A N/A N/A S14       29.80F
FALCON         FAIR      26  15  61 CALM      29.82F
FORT CARSON    NOT AVBL
LIMON          FAIR      25  20  81 SE7       29.82F WCI  17
MONUMENT HILL  FAIR      28  14  54 S10       29.80F WCI  19
TRINIDAD       FAIR      24  12  60 NW5       29.84F WCI  18
$$

COZ042>045-048>051-090-091-230800-
...NORTHEAST COLORADO...

CITY           SKY/WX    TMP DP  RH WIND       PRES   REMARKS
GREELEY ARPT   CLOUDY    32  23  69 E5        29.77F WCI  27
AKRON          FAIR      31  20  63 S13       29.79F WCI  21
BURLINGTON     FAIR      30  24  78 S9        29.85F WCI  22
WRAY           FAIR      28  25  86 CALM      29.84F
STERLING       FAIR      28  25  86 CALM      29.78F
HOLYOKE        FAIR      32  27  80 SW5       29.84F WCI  27
FORT MORGAN    MOCLDY    31  22  68 E7        29.80F WCI  24
$$

COZ086-089-092>099-230800-
...SOUTHEAST COLORADO...

CITY           SKY/WX    TMP DP  RH WIND       PRES   REMARKS
PUEBLO         FAIR      29  22  75 N7        29.83R WCI  22
LA JUNTA       FAIR      33  19  56 S7        29.85F WCI  27
LAMAR          FAIR      27  22  81 CALM      29.86F
SPRINGFIELD      N/A     25  19  78 SW9       29.89F WCI  15
$$




USA.gov is the U.S. government's official web portal to all federal, state and local government web resources and services.